Weather in Marusino

Russia / Tambov Oblast     53°23′25″N   41°56′27″E
В апреле 2022 года жителям России запретили посещать сайт meteo.paraplan.net по решению Генеральной прокуратуры. Аудитория сайта уменьшилась в 10 раз. Владельцы сайта не видят смысла в поддержке погодного сервера в таких условиях. Сайт будет закрыт в октябре.
temp.,
°C
wind,
m/s
gust,
m/s
humid.,
%
clouds,
%
prec.,
mm/h
press.,
hPa
HPBL,
m
30 september, fri
fri3000:00+12se2486100 0.0 101693
03:00+10sse239374 0.0 101863
06:00+10sse2494100 0.0 101969
09:00+13sse3678100 0.0 1019298
12:00+17sse4564100 0.0 1019735
15:00+18s3562100 0.0 1019915
18:00+14sse2778100 0.1 1020205
21:00+14sse398985 1.4 1020305
1 october, sat
sat100:00+13sse3119495 0.6 1019370
03:00+13sse31188100 1.3 1019309
06:00+12s31092100 0.6 1019285
09:00+14s41290100 0.3 1019431
12:00+14sse41294100 2.3 1018492
15:00+17s41184100 3.9 1016879
18:00+15sse411949 3.5 1014291
21:00+14s4109625 4.7 1013259
2 october, sun
sun200:00+14s4109786 0.0 1012253
03:00+14ssw3997100 0.0 1011310
06:00+13sw2797100 0.0 1011242
09:00+14wsw378890 0.0 1012483
12:00+16sw367391 0.0 1012813
15:00+18s346891 0.0 1010798
18:00+14ese3685100 0.0 1009112
21:00+14ese3990100 0.4 1007217
3 october, mon
mon300:00+15sse41393100 1.4 1005471
03:00+15se41091100 2.1 1004282
06:00+15se51486100 0.1 1002501
09:00+16se61571100 0.1 1002737
12:00+17se71774100 0.1 10011168
15:00+15s61291100 1.2 10031025
18:00+12ssw5977100 0.4 1007999
21:00+11s3883100 0.4 1009687
4 october, tue
tue400:00+10s4109099 0.0 1010439
03:00+10ssw388684 0.1 1012664
06:00+7ssw28965 0.0 1014269
09:00+10ssw36770 0.0 1016485
12:00+13ssw45564 0.0 10171301
15:00+14s4753100 0.0 10171853
18:00+12sse2767100 0.0 1019238
21:00+9sse26815 0.0 1020122